�������l�o���
Date,Time,MP-1(��Sv/h),MP-2(��Sv/h),MP-3(��Sv/h),MP-4(��Sv/h),MP-5(��Sv/h),MP-6(��Sv/h),MP-7(��Sv/h),MP-8(��Sv/h),����,����(m/s),���J
2018/02/12,00:00,0.886,1.476,0.923,1.725,1.190,0.486,0.869,0.836,���k��,12.7,��
2018/02/12,00:10,0.884,1.478,0.923,1.727,1.188,0.487,0.868,0.835,���k��,15.3,��
2018/02/12,00:20,0.885,1.479,0.922,1.726,1.188,0.486,0.868,0.835,���k��,18.8,��
2018/02/12,00:30,0.883,1.477,0.925,1.725,1.186,0.489,0.869,0.837,��,15.8,��
2018/02/12,00:40,0.882,1.479,0.920,1.723,1.189,0.483,0.866,0.835,��,15.0,��
2018/02/12,00:50,0.881,1.477,0.919,1.722,1.188,0.485,0.864,0.837,��,13.0,��
2018/02/12,01:00,0.881,1.474,0.920,1.722,1.184,0.486,0.863,0.837,��,13.8,��
2018/02/12,01:10,0.884,1.476,0.920,1.724,1.186,0.486,0.862,0.836,��,13.8,��
2018/02/12,01:20,0.883,1.477,0.920,1.723,1.189,0.484,0.862,0.838,��,12.2,��
2018/02/12,01:30,0.883,1.476,0.919,1.721,1.187,0.485,0.865,0.836,��,12.4,��
2018/02/12,01:40,0.882,1.477,0.920,1.720,1.188,0.484,0.866,0.836,��,13.6,��
2018/02/12,01:50,0.882,1.476,0.922,1.721,1.185,0.485,0.863,0.835,��,14.7,��
2018/02/12,02:00,0.881,1.479,0.923,1.723,1.186,0.484,0.863,0.836,��,13.5,��
2018/02/12,02:10,0.880,1.476,0.920,1.723,1.186,0.484,0.864,0.835,��,13.6,��
2018/02/12,02:20,0.881,1.477,0.920,1.725,1.186,0.486,0.865,0.836,��,14.1,��
2018/02/12,02:30,0.881,1.479,0.921,1.725,1.187,0.487,0.867,0.836,��,12.7,��
2018/02/12,02:40,0.883,1.476,0.920,1.723,1.189,0.488,0.863,0.836,��,12.4,��
2018/02/12,02:50,0.883,1.479,0.920,1.723,1.186,0.489,0.865,0.835,��,13.6,��
2018/02/12,03:00,0.883,1.476,0.919,1.725,1.184,0.486,0.866,0.837,��,14.7,��
2018/02/12,03:10,0.884,1.477,0.922,1.725,1.186,0.488,0.866,0.838,��,12.4,��
2018/02/12,03:20,0.883,1.476,0.920,1.725,1.184,0.487,0.866,0.835,��,11.4,��
2018/02/12,03:30,0.885,1.478,0.923,1.726,1.186,0.486,0.865,0.838,��,11.0,��
2018/02/12,03:40,0.882,1.478,0.921,1.725,1.187,0.486,0.867,0.836,���k��,14.9,��
2018/02/12,03:50,0.885,1.478,0.923,1.728,1.186,0.488,0.866,0.837,��,14.4,��
2018/02/12,04:00,0.883,1.475,0.921,1.727,1.188,0.486,0.868,0.836,��,15.0,��
2018/02/12,04:10,0.882,1.478,0.923,1.722,1.188,0.487,0.866,0.835,���쐼,11.6,��
2018/02/12,04:20,0.883,1.479,0.923,1.723,1.187,0.487,0.866,0.836,��,11.6,��
2018/02/12,04:30,0.884,1.477,0.922,1.725,1.187,0.488,0.866,0.836,���쐼,10.9,��
2018/02/12,04:40,0.883,1.476,0.921,1.725,1.185,0.487,0.865,0.836,��,10.5,��
2018/02/12,04:50,0.882,1.478,0.924,1.726,1.186,0.487,0.864,0.837,���쐼,9.6,��
2018/02/12,05:00,0.884,1.479,0.923,1.725,1.186,0.486,0.866,0.836,�쐼,7.5,��
2018/02/12,05:10,0.882,1.478,0.923,1.725,1.188,0.488,0.867,0.834,���쐼,7.2,��
2018/02/12,05:20,0.883,1.477,0.921,1.726,1.189,0.489,0.865,0.836,�쐼,7.8,��
2018/02/12,05:30,0.883,1.479,0.920,1.726,1.187,0.488,0.867,0.835,���쐼,6.8,��
2018/02/12,05:40,0.883,1.479,0.923,1.725,1.187,0.488,0.866,0.835,���쐼,7.1,��
2018/02/12,05:50,0.882,1.477,0.924,1.725,1.189,0.486,0.867,0.835,���쐼,7.4,��
2018/02/12,06:00,0.883,1.477,0.921,1.726,1.188,0.485,0.866,0.836,���쐼,5.9,��
2018/02/12,06:10,0.884,1.478,0.922,1.727,1.189,0.488,0.866,0.835,�쐼,6.5,��
2018/02/12,06:20,0.884,1.477,0.922,1.726,1.186,0.488,0.865,0.836,�쐼,6.8,��
2018/02/12,06:30,0.884,1.481,0.922,1.726,1.190,0.488,0.865,0.836,���쐼,7.5,��
2018/02/12,06:40,0.883,1.475,0.920,1.723,1.190,0.488,0.865,0.834,�쐼,7.0,��
2018/02/12,06:50,0.884,1.482,0.921,1.725,1.190,0.486,0.863,0.835,��쐼,7.6,��
2018/02/12,07:00,0.882,1.477,0.922,1.728,1.190,0.486,0.866,0.835,��쐼,7.8,��
2018/02/12,07:10,0.882,1.475,0.922,1.726,1.191,0.488,0.864,0.836,��쐼,6.7,��
2018/02/12,07:20,0.884,1.479,0.923,1.727,1.193,0.489,0.865,0.836,��쐼,7.1,��
2018/02/12,07:30,0.884,1.480,0.921,1.727,1.190,0.489,0.866,0.837,��쐼,7.6,��
2018/02/12,07:40,0.884,1.477,0.922,1.727,1.189,0.488,0.866,0.834,��쐼,6.1,��
2018/02/12,07:50,0.884,1.476,0.924,1.727,1.189,0.489,0.868,0.836,�쐼,6.3,��
2018/02/12,08:00,0.884,1.475,0.923,1.729,1.190,0.487,0.864,0.834,�쐼,6.5,��
2018/02/12,08:10,0.884,1.477,0.923,1.729,1.191,0.487,0.867,0.836,�쐼,5.9,��
2018/02/12,08:20,0.884,1.477,0.925,1.727,1.191,0.489,0.867,0.836,��쐼,5.5,��
2018/02/12,08:30,0.885,1.477,0.924,1.728,1.190,0.488,0.867,0.834,�쐼,5.0,��
2018/02/12,08:40,0.885,1.482,0.924,1.728,1.191,0.489,0.868,0.835,�쐼,5.1,��
2018/02/12,08:50,0.885,1.478,0.924,1.731,1.193,0.488,0.869,0.835,�쐼,7.1,��
2018/02/12,09:00,0.884,1.476,0.921,1.731,1.193,0.487,0.869,0.836,�쐼,10.8,��
2018/02/12,09:10,0.887,1.477,0.923,1.728,1.191,0.489,0.868,0.837,���쐼,9.5,��
2018/02/12,09:20,0.884,1.477,0.924,1.730,1.192,0.488,0.869,0.837,���쐼,6.9,��
2018/02/12,09:30,0.885,1.482,0.922,1.732,1.193,0.488,0.868,0.836,���쐼,11.6,��
2018/02/12,09:40,0.886,1.479,0.922,1.731,1.195,0.489,0.866,0.836,��,8.1,��
2018/02/12,09:50,0.885,1.480,0.922,1.730,1.192,0.489,0.869,0.837,��,5.8,��
2018/02/12,10:00,0.886,1.479,0.924,1.731,1.193,0.490,0.869,0.836,���쐼,7.9,��
2018/02/12,10:10,0.885,1.481,0.925,1.728,1.194,0.489,0.866,0.838,���쐼,8.3,��
2018/02/12,10:20,0.885,1.479,0.924,1.731,1.194,0.490,0.867,0.836,���쐼,8.6,��
2018/02/12,10:30,0.886,1.482,0.924,1.730,1.194,0.489,0.865,0.839,���쐼,9.3,��
2018/02/12,10:40,0.886,1.481,0.923,1.732,1.193,0.489,0.864,0.837,��,11.6,��
2018/02/12,10:50,0.887,1.481,0.923,1.731,1.193,0.488,0.864,0.837,���쐼,9.7,��
2018/02/12,11:00,0.888,1.480,0.923,1.729,1.194,0.488,0.865,0.837,���쐼,8.3,��
2018/02/12,11:10,0.888,1.481,0.923,1.729,1.193,0.488,0.865,0.837,��,12.7,��
2018/02/12,11:20,0.887,1.482,0.927,1.732,1.192,0.490,0.865,0.837,��,14.1,��
2018/02/12,11:30,0.888,1.478,0.923,1.729,1.193,0.489,0.864,0.837,��,10.7,��
2018/02/12,11:40,0.889,1.482,0.925,1.731,1.193,0.489,0.864,0.838,��,9.2,��
2018/02/12,11:50,0.887,1.482,0.923,1.727,1.195,0.489,0.868,0.837,��,11.4,��
2018/02/12,12:00,0.887,1.479,0.926,1.731,1.193,0.488,0.864,0.836,���k��,9.3,��
2018/02/12,12:10,0.887,1.480,0.923,1.730,1.196,0.488,0.866,0.837,��,12.7,��
2018/02/12,12:20,0.887,1.481,0.925,1.729,1.195,0.489,0.866,0.838,��,11.0,��
2018/02/12,12:30,0.889,1.479,0.926,1.733,1.195,0.488,0.865,0.837,���k��,13.1,��
2018/02/12,12:40,0.890,1.478,0.925,1.730,1.196,0.488,0.865,0.838,���k��,10.7,��
2018/02/12,12:50,0.889,1.482,0.924,1.729,1.194,0.489,0.867,0.837,��,11.6,��
2018/02/12,13:00,0.887,1.484,0.923,1.733,1.197,0.488,0.866,0.837,��,8.4,��
2018/02/12,13:10,0.888,1.476,0.925,1.734,1.193,0.489,0.864,0.838,��,7.2,��
2018/02/12,13:20,0.887,1.478,0.924,1.731,1.194,0.489,0.866,0.838,��,10.2,��
2018/02/12,13:30,0.890,1.480,0.926,1.732,1.194,0.488,0.868,0.838,��,9.6,��
2018/02/12,13:40,0.888,1.479,0.925,1.734,1.196,0.488,0.865,0.838,���k��,11.4,��
2018/02/12,13:50,0.887,1.480,0.926,1.733,1.194,0.489,0.864,0.837,��,12.2,��
2018/02/12,14:00,0.887,1.482,0.922,1.733,1.195,0.487,0.863,0.837,��,10.2,��
2018/02/12,14:10,0.888,1.482,0.924,1.734,1.195,0.488,0.865,0.835,��,9.0,��
2018/02/12,14:20,0.889,1.482,0.922,1.733,1.194,0.488,0.867,0.837,��,9.7,��
2018/02/12,14:30,0.887,1.486,0.922,1.735,1.194,0.487,0.865,0.835,��,10.7,��
2018/02/12,14:40,0.889,1.484,0.924,1.731,1.197,0.488,0.866,0.838,��,8.4,��
2018/02/12,14:50,0.888,1.484,0.925,1.734,1.196,0.489,0.867,0.837,��,7.4,��
2018/02/12,15:00,0.889,1.478,0.926,1.732,1.196,0.488,0.867,0.837,��,7.6,��
2018/02/12,15:10,0.889,1.483,0.925,1.732,1.196,0.489,0.868,0.838,��,9.3,��
2018/02/12,15:20,0.887,1.483,0.925,1.731,1.198,0.489,0.867,0.836,��,9.9,��
2018/02/12,15:30,0.889,1.478,0.924,1.734,1.197,0.489,0.868,0.837,��,9.7,��
2018/02/12,15:40,0.887,1.483,0.924,1.730,1.196,0.488,0.869,0.836,��,7.7,��
2018/02/12,15:50,0.885,1.481,0.925,1.736,1.196,0.487,0.868,0.836,���k��,5.2,��
2018/02/12,16:00,0.887,1.482,0.923,1.733,1.197,0.487,0.868,0.835,���k��,5.0,��
2018/02/12,16:10,0.887,1.483,0.923,1.733,1.198,0.486,0.868,0.836,���k��,5.2,��
2018/02/12,16:20,0.889,1.483,0.924,1.735,1.196,0.489,0.867,0.837,���k��,4.9,��
2018/02/12,16:30,0.889,1.482,0.926,1.734,1.194,0.489,0.868,0.837,���k��,4.3,��
2018/02/12,16:40,0.886,1.484,0.922,1.734,1.198,0.487,0.869,0.837,���k��,4.9,��
2018/02/12,16:50,0.886,1.484,0.926,1.734,1.199,0.488,0.868,0.838,���k��,4.2,��
2018/02/12,17:00,0.886,1.481,0.923,1.733,1.195,0.487,0.868,0.836,���k��,4.4,��
2018/02/12,17:10,0.887,1.481,0.923,1.731,1.198,0.487,0.866,0.837,�k��,3.8,��
2018/02/12,17:20,0.883,1.484,0.925,1.732,1.196,0.487,0.867,0.836,�k�k��,1.5,��
2018/02/12,17:30,0.884,1.481,0.922,1.732,1.195,0.487,0.868,0.836,���k��,1.5,��
2018/02/12,17:40,0.886,1.482,0.925,1.729,1.193,0.487,0.866,0.836,�k��,1.5,��
2018/02/12,17:50,0.884,1.485,0.924,1.730,1.192,0.487,0.867,0.835,�k,2.9,��
2018/02/12,18:00,0.886,1.483,0.921,1.730,1.192,0.488,0.867,0.835,�k,2.5,��
2018/02/12,18:10,0.885,1.483,0.922,1.730,1.194,0.486,0.867,0.835,�k,2.8,��
2018/02/12,18:20,0.886,1.480,0.923,1.731,1.193,0.489,0.865,0.834,�k�k��,2.9,��
2018/02/12,18:30,0.885,1.480,0.923,1.730,1.193,0.486,0.864,0.837,�k�k��,3.7,��
2018/02/12,18:40,0.883,1.482,0.924,1.732,1.196,0.487,0.866,0.836,�k,3.3,��
2018/02/12,18:50,0.884,1.483,0.922,1.729,1.195,0.486,0.864,0.835,�k,2.0,��
2018/02/12,19:00,0.884,1.483,0.924,1.730,1.194,0.487,0.867,0.836,�k�k��,2.0,��
2018/02/12,19:10,0.884,1.480,0.923,1.731,1.195,0.487,0.866,0.836,�k,1.7,��
2018/02/12,19:20,0.884,1.481,0.923,1.727,1.194,0.486,0.865,0.834,�k�k��,2.0,��
2018/02/12,19:30,0.885,1.481,0.925,1.731,1.193,0.486,0.866,0.834,���k��,1.8,��
2018/02/12,19:40,0.884,1.478,0.922,1.730,1.193,0.486,0.864,0.835,��,3.0,��
2018/02/12,19:50,0.884,1.482,0.924,1.730,1.193,0.486,0.864,0.836,��,3.6,��
2018/02/12,20:00,0.885,1.482,0.922,1.731,1.191,0.486,0.865,0.833,���k��,3.5,��
2018/02/12,20:10,0.882,1.481,0.920,1.730,1.194,0.485,0.866,0.834,���k��,2.8,��
2018/02/12,20:20,0.886,1.479,0.921,1.728,1.193,0.486,0.865,0.835,���k��,2.9,��
2018/02/12,20:30,0.884,1.479,0.922,1.729,1.191,0.486,0.866,0.837,���k��,2.8,��
2018/02/12,20:40,0.883,1.481,0.923,1.728,1.193,0.487,0.866,0.835,���k��,3.2,��
2018/02/12,20:50,0.883,1.480,0.921,1.730,1.192,0.485,0.865,0.836,���k��,4.2,��
2018/02/12,21:00,0.881,1.480,0.921,1.730,1.194,0.486,0.866,0.834,���k��,4.9,��
2018/02/12,21:10,0.884,1.481,0.920,1.731,1.193,0.486,0.866,0.834,���k��,4.9,��
2018/02/12,21:20,0.882,1.480,0.921,1.730,1.191,0.485,0.866,0.834,���k��,4.7,��
2018/02/12,21:30,0.884,1.480,0.921,1.726,1.192,0.485,0.866,0.834,��,4.9,��
2018/02/12,21:40,0.884,1.480,0.921,1.729,1.191,0.487,0.865,0.836,��,4.6,��
2018/02/12,21:50,0.884,1.480,0.922,1.727,1.191,0.486,0.865,0.835,��,4.9,��
2018/02/12,22:00,0.884,1.483,0.923,1.730,1.193,0.486,0.865,0.834,��,5.2,��
2018/02/12,22:10,0.884,1.481,0.920,1.727,1.192,0.486,0.867,0.835,���k��,4.6,��
2018/02/12,22:20,0.883,1.479,0.922,1.730,1.192,0.485,0.867,0.835,���k��,4.0,��
2018/02/12,22:30,0.883,1.481,0.923,1.730,1.192,0.485,0.868,0.836,���k��,4.0,��
2018/02/12,22:40,0.884,1.482,0.923,1.727,1.190,0.485,0.865,0.835,���k��,3.7,��
2018/02/12,22:50,0.884,1.480,0.921,1.729,1.194,0.488,0.866,0.834,���k��,4.6,��
2018/02/12,23:00,0.883,1.483,0.924,1.728,1.193,0.485,0.867,0.835,���k��,5.4,��
2018/02/12,23:10,0.884,1.480,0.922,1.727,1.194,0.486,0.867,0.836,�k��,4.1,��
2018/02/12,23:20,0.883,1.480,0.921,1.730,1.192,0.487,0.867,0.836,�k��,3.4,��
2018/02/12,23:30,0.885,1.480,0.920,1.729,1.192,0.486,0.866,0.836,�k��,3.4,��
2018/02/12,23:40,0.883,1.480,0.921,1.728,1.190,0.486,0.866,0.835,���k��,3.6,��
2018/02/12,23:50,0.882,1.481,0.922,1.729,1.192,0.488,0.865,0.835,��,3.1,��
